Weather History for Huntsville Madison, AL

Change the Weather History Date:

Monday, July 28, 2014

  Actual Average (KHSV) Record (KHSV)
Temperature  
Mean Temperature 74 °F 81 °F  
Max Temperature 82 °F 91 °F 110 °F (1930)
Min Temperature 64 °F 70 °F 56 °F (1911)
Degree Days  
Heating Degree Days 0 0  
Month to date heating degree days 0  
Since 1 June heating degree days 1  
Since 1 July heating degree days 0  
Cooling Degree Days 9 16  
Month to date cooling degree days 440  
Year to date cooling degree days 1083  
Since 1 June cooling degree days 820  
Growing Degree Days 24 (Base 50)    
Moisture  
Dew Point 60 °F    
Average Humidity 61    
Maximum Humidity 88    
Minimum Humidity 35    
Precipitation  
Precipitation 0.02 in 0.12 in 2.04 in (1923)
Month to date precipitation 3.70  
Year to date precipitation 32.36  
Snow  
Snow 0.00 in - - ()
Month to date snowfall  
Since 1 June snowfall  
Since 1 July snowfall  
Snow Depth -    
Sea Level Pressure  
Sea Level Pressure 29.99 in    
Wind  
Wind Speed 6 mph (NW)    
Max Wind Speed 15 mph    
Max Gust Speed 18 mph    
Visibility 10 miles    
Events      
T = Trace of Precipitation, MM = Missing Value Source: NWS Daily Summary

Daily Weather History Graph

Daily Weather History Graph

Search for Another Location

Airport:

Trip Planner

Search our weather history database for the weather conditions in past years. The results will help you decide how hot, cold, wet, or windy it might be!

Date:

Astronomy

Jul. 28, 2014 Rise Set
Actual Time 5:52 AM CDT 7:52 PM CDT
Civil Twilight 5:24 AM CDT 8:20 PM CDT
Nautical Twilight 4:50 AM CDT 8:53 PM CDT
Astronomical Twilight 4:14 AM CDT 9:30 PM CDT
Moon 7:27 AM CDT (7/28) 8:40 PM CDT (7/28)
Length of Visible Light 14h 55m
Length of Day
13h 59m
Waxing Crescent, 3% of the Moon is Illuminated
Jul 28
Waxing Crescent
Aug 3
First Quarter
Aug 10
Full
Aug 17
Last Quarter
Aug 25
New

Hourly Weather History & Observations

Time (CDT) Temp. Heat Index Dew Point Humidity Pressure Visibility Wind Dir Wind Speed Gust Speed Precip Events Conditions
12:15 AM 80.6 °F 83.9 °F 69.8 °F 70% 29.94 in 10.0 mi SW 6.9 mph - N/A   Scattered Clouds
12:35 AM 78.8 °F - 71.6 °F 78% 29.94 in 10.0 mi SW 6.9 mph - N/A   Scattered Clouds
12:55 AM 78.8 °F - 71.6 °F 78% 29.94 in 10.0 mi WSW 6.9 mph - N/A   Mostly Cloudy
1:15 AM 78.8 °F - 71.6 °F 78% 29.94 in 10.0 mi WSW 6.9 mph - N/A   Mostly Cloudy
1:35 AM 78.8 °F - 71.6 °F 78% 29.94 in 10.0 mi SW 5.8 mph - N/A   Scattered Clouds
2:15 AM 75.2 °F - 68.0 °F 78% 29.93 in 10.0 mi WNW 5.8 mph - 0.02 in   Scattered Clouds
2:35 AM 73.4 °F - 68.0 °F 83% 29.93 in 10.0 mi Calm Calm - 0.02 in   Clear
3:15 AM 73.4 °F - 68.0 °F 83% 29.94 in 10.0 mi North 8.1 mph - N/A   Mostly Cloudy
3:35 AM 73.4 °F - 68.0 °F 83% 29.94 in 10.0 mi North 3.5 mph - N/A   Mostly Cloudy
3:55 AM 71.6 °F - 68.0 °F 88% 29.94 in 10.0 mi Calm Calm - N/A   Scattered Clouds
4:15 AM 71.6 °F - 68.0 °F 88% 29.95 in 10.0 mi Calm Calm - N/A   Clear
4:35 AM 71.6 °F - 68.0 °F 88% 29.96 in 10.0 mi Calm Calm - N/A   Clear
4:55 AM 71.6 °F - 66.2 °F 83% 29.96 in 7.0 mi Calm Calm - N/A   Clear
5:15 AM 69.8 °F - 66.2 °F 88% 29.97 in 10.0 mi Calm Calm - N/A   Clear
5:35 AM 69.8 °F - 64.4 °F 83% 29.98 in 10.0 mi NNW 4.6 mph - N/A   Clear
5:55 AM 69.8 °F - 64.4 °F 83% 29.98 in 10.0 mi NW 3.5 mph - N/A   Clear
6:15 AM 69.8 °F - 64.4 °F 83% 29.99 in 10.0 mi NW 5.8 mph - N/A   Clear
6:35 AM 69.8 °F - 64.4 °F 83% 29.99 in 10.0 mi Calm Calm - N/A   Clear
6:55 AM 69.8 °F - 64.4 °F 83% 30.00 in 10.0 mi NNW 3.5 mph - N/A   Clear
7:15 AM 71.6 °F - 64.4 °F 78% 30.00 in 10.0 mi NNW 4.6 mph - N/A   Clear
7:35 AM 71.6 °F - 64.4 °F 78% 30.01 in 10.0 mi NNW 6.9 mph - N/A   Clear
7:55 AM 73.4 °F - 64.4 °F 73% 30.01 in 10.0 mi NNW 8.1 mph - N/A   Clear
8:15 AM 73.4 °F - 62.6 °F 69% 30.01 in 7.0 mi NNW 6.9 mph - N/A   Clear
8:35 AM 73.4 °F - 62.6 °F 69% 30.01 in 7.0 mi North 8.1 mph - N/A   Clear
8:55 AM 75.2 °F - 60.8 °F 61% 30.02 in 10.0 mi NNW 9.2 mph - N/A   Clear
9:35 AM 77.0 °F - 59.0 °F 54% 30.02 in 10.0 mi NW 6.9 mph - N/A   Clear
9:55 AM 78.8 °F - 59.0 °F 51% 30.02 in 10.0 mi WNW 6.9 mph - N/A   Clear
10:15 AM 78.8 °F - 59.0 °F 51% 30.02 in 10.0 mi NW 6.9 mph - N/A   Clear
10:35 AM 78.8 °F - 57.2 °F 47% 30.03 in 10.0 mi NNW 9.2 mph - N/A   Clear
10:55 AM 78.8 °F - 55.4 °F 44% 30.03 in 10.0 mi NW 8.1 mph - N/A   Clear
11:15 AM 80.6 °F 80.5 °F 55.4 °F 42% 30.03 in 10.0 mi NNW 10.4 mph 16.1 mph N/A   Clear
11:35 AM 80.6 °F 80.5 °F 55.4 °F 42% 30.02 in 10.0 mi NNW 10.4 mph - N/A   Clear
11:55 AM 80.6 °F 80.5 °F 55.4 °F 42% 30.02 in 10.0 mi NW 9.2 mph - N/A   Scattered Clouds
12:15 PM 80.6 °F 80.5 °F 55.4 °F 42% 30.02 in 10.0 mi NNW 9.2 mph - N/A   Clear
12:35 PM 80.6 °F 80.5 °F 55.4 °F 42% 30.01 in 10.0 mi NNW 10.4 mph - N/A   Clear
12:55 PM 82.4 °F 81.4 °F 53.6 °F 37% 30.01 in 10.0 mi NW 9.2 mph - N/A   Scattered Clouds
1:15 PM 82.4 °F 81.4 °F 53.6 °F 37% 30.01 in 10.0 mi NNW 11.5 mph - N/A   Clear
1:35 PM 82.4 °F 81.4 °F 53.6 °F 37% 30.00 in 10.0 mi WNW 10.4 mph - N/A   Clear
1:55 PM 82.4 °F 81.4 °F 53.6 °F 37% 30.00 in 10.0 mi NNW 10.4 mph 17.3 mph N/A   Clear
2:15 PM 82.4 °F - 51.8 °F 35% 30.00 in 10.0 mi NW 15.0 mph - N/A   Clear
2:35 PM 82.4 °F - 51.8 °F 35% 30.00 in 10.0 mi NNW 13.8 mph - N/A   Clear
3:15 PM 82.4 °F 81.4 °F 53.6 °F 37% 30.00 in 10.0 mi NNW 12.7 mph - N/A   Scattered Clouds
3:35 PM 80.6 °F 80.3 °F 53.6 °F 39% 29.99 in 10.0 mi NNW 11.5 mph 18.4 mph N/A   Scattered Clouds
3:55 PM 82.4 °F 81.4 °F 53.6 °F 37% 29.99 in 10.0 mi NNW 12.7 mph - N/A   Scattered Clouds
4:15 PM 78.8 °F - 53.6 °F 42% 29.99 in 10.0 mi NW 9.2 mph - N/A   Scattered Clouds
4:35 PM 82.4 °F 81.4 °F 53.6 °F 37% 29.99 in 10.0 mi NW 11.5 mph - N/A   Clear
4:55 PM 82.4 °F 81.4 °F 53.6 °F 37% 29.99 in 10.0 mi NNW 11.5 mph - N/A   Clear
5:15 PM 82.4 °F 81.4 °F 53.6 °F 37% 29.99 in 10.0 mi NNW 11.5 mph 17.3 mph N/A   Clear
5:35 PM 80.6 °F 80.3 °F 53.6 °F 39% 29.98 in 10.0 mi NW 10.4 mph - N/A   Clear
5:55 PM 82.4 °F 81.4 °F 53.6 °F 37% 29.98 in 10.0 mi NW 10.4 mph - N/A   Scattered Clouds
6:15 PM 80.6 °F 80.5 °F 55.4 °F 42% 29.98 in 10.0 mi NW 9.2 mph - N/A   Scattered Clouds
6:35 PM 80.6 °F 80.5 °F 55.4 °F 42% 29.99 in 10.0 mi NNW 11.5 mph - N/A   Clear
6:55 PM 78.8 °F - 55.4 °F 44% 29.99 in 10.0 mi NNW 9.2 mph - N/A   Clear
7:15 PM 77.0 °F - 57.2 °F 50% 29.99 in 10.0 mi NNW 6.9 mph - N/A   Clear
7:35 PM 75.2 °F - 57.2 °F 53% 29.99 in 10.0 mi NNW 6.9 mph - N/A   Clear
7:55 PM 73.4 °F - 59.0 °F 61% 30.00 in 10.0 mi NNW 5.8 mph - N/A   Clear
8:15 PM 71.6 °F - 59.0 °F 64% 30.00 in 10.0 mi NNW 3.5 mph - N/A   Clear
8:55 PM 69.8 °F - 59.0 °F 68% 30.01 in 10.0 mi NNW 3.5 mph - N/A   Clear
9:15 PM 69.8 °F - 59.0 °F 68% 30.01 in 10.0 mi NW 3.5 mph - N/A   Clear
9:55 PM 68.0 °F - 59.0 °F 73% 30.03 in 10.0 mi Calm Calm - N/A   Clear
10:15 PM 68.0 °F - 59.0 °F 73% 30.03 in 10.0 mi Calm Calm - N/A   Clear
10:35 PM 68.0 °F - 59.0 °F 73% 30.03 in 10.0 mi Calm Calm - N/A   Clear
10:55 PM 66.2 °F - 60.8 °F 83% 30.03 in 10.0 mi Calm Calm - N/A   Clear
11:15 PM 66.2 °F - 59.0 °F 78% 30.03 in 10.0 mi Calm Calm - N/A   Clear
11:35 PM 66.2 °F - 59.0 °F 78% 30.04 in 10.0 mi Calm Calm - N/A   Clear
11:55 PM 64.4 °F - 59.0 °F 83% 30.04 in 10.0 mi Calm Calm - N/A   Clear